Back to catalog

STARLINK-36456

AliveCommunicationsVLEO
NORAD 67357·PAYLOAD·🇺🇸 United States

Launched Jan 9, 2026 from Cape Canaveral Space Force Station

Loading…

Next Passes (next 24 hours)

TLE

FreshSource: CelesTrak SupGP

Epoch: Sep 15, 2026, 03:59 UTC

1 67357C 26003Z   26258.16645833 -.00041915  00000+0 -15184-2 0  2588
2 67357  42.9995 237.0137 0000859 268.5885  23.0407 15.27595196    12

Track STARLINK-36456 in real time with AllMySat

Download on the App Store